TimeCDT,TemperatureF,Dew PointF,Humidity,Sea Level PressureIn,VisibilityMPH,Wind Direction,Wind SpeedMPH,Gust SpeedMPH,PrecipitationIn,Events,Conditions,WindDirDegrees,DateUTC
12:53 AM,72.0,68.0,87,30.04,10.0,Calm,Calm,-,N/A,,Clear,0,2013-08-23 05:53:00
1:53 AM,72.0,68.0,87,30.04,10.0,Calm,Calm,-,N/A,,Clear,0,2013-08-23 06:53:00
2:53 AM,73.0,68.0,84,30.03,10.0,Calm,Calm,-,N/A,,Clear,0,2013-08-23 07:53:00
3:53 AM,71.1,66.9,87,30.02,10.0,Calm,Calm,-,N/A,,Clear,0,2013-08-23 08:53:00
4:53 AM,70.0,66.9,90,30.04,10.0,Calm,Calm,-,N/A,,Clear,0,2013-08-23 09:53:00
5:27 AM,69.8,66.2,88,30.05,4.0,NNE,3.5,-,N/A,,Partly Cloudy,20,2013-08-23 10:27:00
5:53 AM,69.1,66.0,90,30.05,3.0,Calm,Calm,-,N/A,,Mostly Cloudy,0,2013-08-23 10:53:00
5:55 AM,69.8,66.2,88,30.06,1.8,Calm,Calm,-,N/A,,Mostly Cloudy,0,2013-08-23 10:55:00
6:06 AM,68.0,66.2,94,30.06,0.8,North,3.5,-,N/A,,Mist,360,2013-08-23 11:06:00
6:19 AM,68.0,66.2,94,30.06,1.2,North,3.5,-,N/A,,Overcast,360,2013-08-23 11:19:00
6:36 AM,68.0,64.4,88,30.07,0.2,Calm,Calm,-,N/A,Fog,Fog,0,2013-08-23 11:36:00
6:53 AM,68.0,66.0,93,30.07,0.5,Calm,Calm,-,N/A,Fog,Fog,0,2013-08-23 11:53:00
7:10 AM,69.8,66.2,88,30.07,1.8,Calm,Calm,-,N/A,,Overcast,0,2013-08-23 12:10:00
7:17 AM,69.8,66.2,88,30.08,2.5,Calm,Calm,-,N/A,,Overcast,0,2013-08-23 12:17:00
7:25 AM,71.6,68.0,88,30.07,6.0,Calm,Calm,-,N/A,,Overcast,0,2013-08-23 12:25:00
7:43 AM,73.4,69.8,88,30.08,8.0,Calm,Calm,-,N/A,,Scattered Clouds,0,2013-08-23 12:43:00
7:53 AM,73.9,70.0,87,30.08,8.0,Calm,Calm,-,N/A,,Clear,0,2013-08-23 12:53:00
8:53 AM,80.1,72.0,76,30.08,10.0,NNE,3.5,-,N/A,,Clear,20,2013-08-23 13:53:00
9:53 AM,84.9,72.0,65,30.08,10.0,North,4.6,-,N/A,,Clear,10,2013-08-23 14:53:00
10:53 AM,87.1,72.0,61,30.08,10.0,NNE,3.5,-,N/A,,Clear,30,2013-08-23 15:53:00
11:53 AM,89.1,71.1,55,30.07,10.0,NNE,4.6,-,N/A,,Clear,30,2013-08-23 16:53:00
12:53 PM,86.0,72.0,63,30.06,10.0,North,6.9,-,N/A,,Mostly Cloudy,10,2013-08-23 17:53:00
1:53 PM,91.0,69.1,48,30.04,10.0,Calm,Calm,-,N/A,,Clear,0,2013-08-23 18:53:00
2:53 PM,91.0,69.1,48,30.02,10.0,Calm,Calm,-,N/A,,Clear,0,2013-08-23 19:53:00
3:53 PM,91.0,69.1,48,30.00,10.0,NE,5.8,-,N/A,,Clear,50,2013-08-23 20:53:00
4:53 PM,90.0,70.0,52,30.00,10.0,NE,3.5,-,N/A,,Clear,40,2013-08-23 21:53:00
5:53 PM,88.0,70.0,55,30.00,10.0,NE,4.6,-,N/A,,Clear,50,2013-08-23 22:53:00
6:53 PM,84.0,69.1,61,30.02,10.0,NNE,13.8,18.4,N/A,,Clear,20,2013-08-23 23:53:00
7:53 PM,77.0,69.1,76,30.02,10.0,ENE,3.5,-,N/A,,Clear,70,2013-08-24 00:53:00
8:53 PM,75.9,70.0,82,30.04,10.0,NE,3.5,-,N/A,,Clear,50,2013-08-24 01:53:00
9:53 PM,73.0,69.1,87,30.05,10.0,North,4.6,-,N/A,,Clear,10,2013-08-24 02:53:00
10:53 PM,73.0,69.1,87,30.05,10.0,ENE,3.5,-,N/A,,Clear,70,2013-08-24 03:53:00
11:53 PM,72.0,68.0,87,30.06,10.0,NE,3.5,-,N/A,,Clear,40,2013-08-24 04:53:00